Change the Weather History Date:

Saturday, July 27, 2013

  Actual Average Record
Temperature  
Mean Temperature 71 °F 74 °F  
Max Temperature 79 °F 84 °F 102 °F (1972)
Min Temperature 62 °F 64 °F 52 °F (1903)
Degree Days  
Heating Degree Days 0 0  
Month to date heating degree days 0 0  
Since 1 June heating degree days 0 8  
Since 1 July heating degree days 0 0  
Cooling Degree Days 6 9  
Month to date cooling degree days 222 225  
Year to date cooling degree days 547 513  
Since 1 June cooling degree days 389 359  
Growing Degree Days 20 (Base 50)    
Moisture  
Dew Point 58 °F    
Average Humidity 72    
Maximum Humidity 90    
Minimum Humidity 54    
Precipitation  
Precipitation 0.00 in 0.00 in 0.00 in (2015)
Month to date precipitation 0.09 0.01  
Year to date precipitation 2.72 10.62  
Since 1 July precipitation 0.09 0.01  
Sea Level Pressure  
Sea Level Pressure 29.95 in    
Wind  
Wind Speed 1 mph (WSW)    
Max Wind Speed 8 mph    
Max Gust Speed 14 mph    
Visibility 10 miles    
Events      
T = Trace of Precipitation, MM = Missing Value Source: NWS Daily Summary

Daily Weather History Graph

Daily Weather History Graph

Search for Another Location

Airport or City:

Trip Planner

Search our weather history database for the weather conditions in past years. The results will help you decide how hot, cold, wet, or windy it might be!

Date:

Astronomy

Jul. 27, 2013 Rise Set
Actual Time 6:01 AM PDT 7:57 PM PDT
Civil Twilight 5:33 AM PDT 8:25 PM PDT
Nautical Twilight 4:59 AM PDT 8:58 PM PDT
Astronomical Twilight 4:23 AM PDT 9:34 PM PDT
Moon 11:07 PM PDT (7/27) 11:27 AM PDT (7/27)
Length of Visible Light 14h 51m
Length of Day
13h 56m
Waning Gibbous, 70% of the Moon is Illuminated
Jul 27
Waning Gibbous
Jul 29
Last Quarter
Aug 6
New
Aug 14
First Quarter
Aug 20
Full

Hourly Weather History & Observations

Time (PDT) Temp. Dew Point Humidity Pressure Visibility Wind Dir Wind Speed Gust Speed Precip Events Conditions
12:47 AM 64.9 °F 59.0 °F 81% 30.00 in 10.0 mi Calm Calm - N/A   Clear
1:47 AM 64.0 °F 59.0 °F 84% 30.00 in 10.0 mi Calm Calm - N/A   Clear
2:47 AM 64.0 °F 57.9 °F 80% 29.99 in 10.0 mi Calm Calm - N/A   Clear
3:47 AM 63.0 °F 57.9 °F 84% 29.99 in 10.0 mi Calm Calm - N/A   Clear
3:53 AM 64.4 °F 57.2 °F 77% 30.00 in 10.0 mi Calm Calm - N/A   Partly Cloudy
4:02 AM 64.4 °F 57.2 °F 77% 30.00 in 10.0 mi Calm Calm - N/A   Mostly Cloudy
4:47 AM 63.0 °F 59.0 °F 87% 29.99 in 10.0 mi Calm Calm - N/A   Overcast
5:47 AM 63.0 °F 59.0 °F 87% 29.99 in 10.0 mi Calm Calm - N/A   Overcast
6:20 AM 62.6 °F 59.0 °F 88% 30.00 in 8.0 mi Calm Calm - N/A   Scattered Clouds
6:47 AM 64.0 °F 59.0 °F 84% 30.00 in 9.0 mi Calm Calm - N/A   Clear
7:47 AM 66.0 °F 59.0 °F 78% 30.01 in 10.0 mi Calm Calm - N/A   Clear
8:47 AM 70.0 °F 59.0 °F 68% 30.00 in 10.0 mi Calm Calm - N/A   Clear
9:47 AM 72.0 °F 59.0 °F 64% 29.98 in 10.0 mi Calm Calm - N/A   Clear
10:47 AM 77.0 °F 59.0 °F 54% 29.97 in 10.0 mi Calm Calm - N/A   Clear
11:47 AM 75.9 °F 59.0 °F 56% 29.96 in 10.0 mi Variable 4.6 mph - N/A   Clear
12:47 PM 75.9 °F 59.0 °F 56% 29.95 in 10.0 mi West 5.8 mph - N/A   Clear
1:47 PM 77.0 °F 59.0 °F 54% 29.93 in 10.0 mi Calm Calm - N/A   Clear
2:47 PM 75.9 °F 59.0 °F 56% 29.91 in 10.0 mi West 4.6 mph - N/A   Clear
3:47 PM 73.9 °F 59.0 °F 59% 29.91 in 10.0 mi Variable 4.6 mph - N/A   Clear
4:47 PM 73.0 °F 59.0 °F 61% 29.90 in 10.0 mi Calm Calm - N/A   Clear
5:47 PM 71.1 °F 59.0 °F 66% 29.88 in 10.0 mi Variable 3.5 mph - N/A   Clear
6:47 PM 69.1 °F 59.0 °F 70% 29.88 in 10.0 mi SW 3.5 mph - N/A   Clear
7:44 PM 64.4 °F 59.0 °F 83% 29.90 in 10.0 mi Calm Calm - N/A   Partly Cloudy
7:47 PM 64.9 °F 59.0 °F 81% 29.89 in 10.0 mi WSW 3.5 mph - N/A   Partly Cloudy
7:57 PM 64.4 °F 59.0 °F 83% 29.90 in 10.0 mi Variable 4.6 mph - N/A   Mostly Cloudy
8:26 PM 64.4 °F 57.2 °F 77% 29.90 in 10.0 mi Variable 3.5 mph - N/A   Scattered Clouds
8:47 PM 64.0 °F 57.0 °F 78% 29.91 in 10.0 mi Variable 3.5 mph - N/A   Clear
9:47 PM 64.0 °F 57.0 °F 78% 29.92 in 10.0 mi Calm Calm - N/A   Clear
10:33 PM 62.6 °F 57.2 °F 82% 29.93 in 10.0 mi Calm Calm - N/A   Partly Cloudy
10:47 PM 63.0 °F 57.0 °F 81% 29.92 in 10.0 mi Calm Calm - N/A   Mostly Cloudy
11:47 PM 62.1 °F 57.0 °F 84% 29.91 in 10.0 mi Calm Calm - N/A   Overcast